ON7CFI Weather Reports


time (UTC)temp
F
wind
direction
speed
knots
gust
knots
rain 1hr
in
rain 24hr
in
rain mn
in
humidity
%
barometer
mb
20260505212503 49 77 1.7 6.1 0.14 0.48 0.48 96 1008.5
20260505212003 50 74 1.7 7.0 0.13 0.46 0.46 96 1008.5
20260505211503 50 74 2.6 7.0 0.13 0.45 0.44 96 1008.5
20260505211218 50 75 1.7 7.0 0.12 0.44 0.43 97 1008.5
20260505210503 50 76 1.7 7.0 0.12 0.43 0.42 97 1008.5
20260505210003 50 79 1.7 7.0 0.11 0.41 0.40 97 1008.6
20260505205503 50 76 1.7 5.2 0.11 0.40 0.39 97 1008.6
20260505205003 50 72 1.7 3.5 0.11 0.39 0.39 97 1008.6
20260505204504 50 74 1.7 6.1 0.11 0.39 0.38 97 1008.6
20260505203503 50 73 1.7 4.3 0.11 0.38 0.36 96 1008.6
20260505203003 50 69 0.9 3.5 0.10 0.36 0.35 96 1008.6
20260505202503 50 75 1.7 3.5 0.09 0.35 0.34 96 1008.6
20260505202003 50 81 1.7 5.2 0.09 0.35 0.33 97 1008.6
20260505201503 50 79 1.7 5.2 0.09 0.33 0.31 96 1008.6
20260505201220 50 79 1.7 3.5 0.09 0.33 0.31 96 1008.5
20260505200503 50 82 1.7 3.5 0.09 0.31 0.30 96 1008.5
20260505200003 50 87 0.9 3.5 0.09 0.31 0.29 96 1008.4
20260505195717 50 85 0.9 3.5 0.09 0.31 0.29 96 1008.5
20260505195003 50 80 0.9 3.5 0.09 0.29 0.28 96 1008.5
20260505194503 50 84 0.9 4.3 0.09 0.28 0.27 96 1008.4
20260505194003 50 69 1.7 7.0 0.08 0.28 0.26 96 1008.4
20260505193503 50 63 1.7 7.0 0.08 0.27 0.25 96 1008.4
20260505193003 50 64 1.7 7.0 0.07 0.26 0.24 96 1008.3
20260505192503 50 68 1.7 5.2 0.07 0.26 0.24 96 1008.3
20260505192217 50 64 1.7 5.2 0.06 0.25 0.24 96 1008.3
20260505191719 50 71 2.6 5.2 0.07 0.25 0.24 96 1008.3
20260505191004 50 80 1.7 3.5 0.06 0.24 0.22 96 1008.2
20260505190503 51 86 0.9 3.5 0.05 0.23 0.21 95 1008.2
20260505190004 51 98 0.9 3.5 0.04 0.22 0.20 95 1008.2
20260505185718 51 93 1.7 5.2 0.03 0.21 0.20 95 1008.2
20260505185003 51 81 1.7 5.2 0.03 0.20 0.19 95 1008.2
20260505184718 51 78 1.7 3.5 0.02 0.20 0.18 95 1008.1
20260505184217 51 76 0.9 3.5 0.02 0.20 0.18 95 1008.1
20260505183503 51 78 0.9 3.5 0.02 0.19 0.17 95 1008.1
20260505183003 51 80 0.9 3.5 0.02 0.19 0.17 95 1008.1
20260505182503 51 84 0.9 3.5 0.02 0.19 0.17 95 1008.1
20260505182217 51 79 0.9 3.5 0.02 0.19 0.17 94 1008.2
20260505181503 51 81 0.9 3.5 0.01 0.18 0.17 94 1008.1
20260505181003 51 94 0.9 2.6 0.01 0.18 0.17 94 1008.1
20260505180503 51 81 0.9 5.2 0.01 0.18 0.17 94 1008.2
20260505180003 51 77 0.9 5.2 0.01 0.18 0.17 94 1008.1
20260505175503 51 80 1.7 3.5 0.00 0.17 0.16 94 1008.1
20260505175003 51 85 1.7 5.2 0.00 0.17 0.16 94 1008.2
20260505174503 51 88 1.7 5.2 0.00 0.17 0.16 94 1008.2
20260505174003 51 79 1.7 4.3 0.00 0.17 0.16 93 1008.1
20260505173503 51 78 1.7 4.3 0.00 0.17 0.16 94 1008.3
20260505173003 51 88 1.7 6.1 0.00 0.17 0.16 94 1008.2
20260505172503 51 86 1.7 6.1 0.00 0.17 0.16 94 1008.2
20260505172003 51 86 1.7 3.5 0.00 0.17 0.16 94 1008.2
20260505171503 51 84 1.7 7.8 0.00 0.17 0.16 94 1008.1
20260505171003 51 82 1.7 7.8 0.00 0.17 0.16 94 1008.2
20260505170503 51 94 0.9 5.2 0.00 0.17 0.16 95 1008.2
20260505170003 51 80 1.7 4.3 0.00 0.17 0.16 95 1008.2
20260505165503 51 80 1.7 6.1 0.00 0.17 0.16 94 1008.2
20260505165003 51 91 1.7 6.1 0.00 0.17 0.16 95 1008.1
20260505164503 51 84 2.6 8.7 0.00 0.17 0.16 95 1008.2
20260505164003 51 77 1.7 8.7 0.00 0.17 0.16 95 1008.2
20260505163503 51 81 0.9 6.1 0.00 0.17 0.16 95 1008.2
20260505163003 51 78 1.7 5.2 0.00 0.17 0.16 95 1008.1
20260505162503 51 76 1.7 5.2 0.00 0.17 0.16 95 1008.1
20260505162003 51 78 1.7 5.2 0.00 0.17 0.16 95 1008.2
20260505161503 51 79 1.7 5.2 0.00 0.17 0.16 95 1008.3
20260505161004 51 78 1.7 4.3 0.00 0.17 0.16 95 1008.3
20260505160503 51 75 1.7 4.3 0.00 0.17 0.16 95 1008.2
20260505153003 52 70 1.7 7.0 0.00 0.17 0.16 95 1008.4
20260505152717 52 77 1.7 7.0 0.00 0.17 0.16 95 1008.4
20260505152218 52 79 1.7 6.1 0.00 0.17 0.16 95 1008.3
20260505151503 52 70 1.7 6.1 0.00 0.17 0.16 95 1008.3
20260505151003 52 75 1.7 5.2 0.00 0.17 0.16 95 1008.4
20260505150503 52 79 1.7 5.2 0.00 0.17 0.16 95 1008.4
20260505140503 51 70 0.9 4.3 0.00 0.17 0.16 96 1008.7
20260505125003 51 80 1.7 7.8 0.00 0.17 0.16 97 1009.0
20260505124503 51 78 2.6 7.8 0.00 0.17 0.16 97 1009.0
20260505124003 51 80 2.6 7.8 0.00 0.17 0.16 97 1009.0
20260505123503 51 73 1.7 7.0 0.00 0.17 0.16 97 1009.0
20260505123003 51 69 2.6 7.0 0.00 0.17 0.16 97 1009.1
20260505122503 51 72 1.7 7.0 0.00 0.17 0.16 97 1009.1
20260505122003 51 72 1.7 7.0 0.00 0.17 0.16 97 1009.2
20260505121503 51 69 1.7 6.1 0.00 0.17 0.16 97 1009.2
20260505121217 51 67 1.7 6.1 0.00 0.17 0.16 97 1009.2
20260505120503 51 63 1.7 6.1 0.00 0.17 0.16 97 1009.2
20260505120004 51 67 1.7 6.1 0.00 0.17 0.16 97 1009.3
20260505115503 51 67 1.7 5.2 0.00 0.17 0.16 97 1009.3
20260505115003 51 67 1.7 5.2 0.00 0.17 0.16 97 1009.3
20260505114503 51 62 1.7 7.0 0.00 0.17 0.16 97 1009.4
20260505114003 51 53 1.7 7.0 0.00 0.17 0.16 97 1009.5
20260505113503 51 59 1.7 6.1 0.00 0.17 0.16 97 1009.2
20260505113004 51 51 1.7 5.2 0.00 0.17 0.16 97 1009.2
20260505112503 51 19 0.9 4.3 0.00 0.17 0.16 97 1009.3
20260505112003 51 58 1.7 5.2 0.00 0.17 0.16 97 1009.4
20260505111717 51 67 1.7 7.0 0.00 0.17 0.16 97 1009.3
20260505111003 51 62 1.7 7.0 0.00 0.17 0.16 97 1009.4
20260505110503 51 59 1.7 4.3 0.00 0.17 0.16 97 1009.4
20260505102003 51 67 0.9 6.1 0.01 0.17 0.16 97 1009.5
20260505101503 51 76 1.7 4.3 0.01 0.17 0.16 97 1009.4
20260505101003 51 71 2.6 7.8 0.01 0.17 0.16 97 1009.5
20260505100717 51 69 2.6 7.8 0.01 0.17 0.16 97 1009.5
20260505100004 52 73 1.7 6.1 0.01 0.17 0.16 97 1009.4
20260505095503 52 66 1.7 5.2 0.01 0.17 0.16 97 1009.4
20260505095003 52 61 1.7 4.3 0.01 0.17 0.16 97 1009.4
20260505094503 52 62 1.7 4.3 0.02 0.17 0.16 97 1009.5
20260505094218 52 68 1.7 7.0 0.02 0.17 0.16 97 1009.5
20260505093503 52 71 1.7 7.0 0.02 0.17 0.16 97 1009.5
20260505093003 52 60 0.9 3.5 0.02 0.17 0.16 98 1009.5
20260505092503 52 54 0.9 3.5 0.02 0.17 0.16 97 1009.6
20260505092003 51 61 1.7 5.2 0.01 0.17 0.15 97 1009.6
20260505091503 51 72 1.7 5.2 0.01 0.17 0.15 97 1009.6
20260505091003 51 76 1.7 5.2 0.01 0.17 0.15 97 1009.6
20260505090716 52 73 1.7 5.2 0.01 0.17 0.15 97 1009.7
20260505090003 52 69 1.7 5.2 0.01 0.17 0.15 98 1009.6
20260505085503 52 66 0.9 5.2 0.01 0.17 0.15 98 1009.6
20260505085003 52 62 0.9 3.5 0.01 0.17 0.15 98 1009.6
20260505084503 52 67 1.7 5.2 0.00 0.16 0.14 97 1009.6
20260505084003 52 72 1.7 5.2 0.00 0.16 0.14 97 1009.6
20260505083503 52 71 1.7 5.2 0.00 0.16 0.14 97 1009.7
20260505083003 52 67 1.7 5.2 0.00 0.16 0.14 98 1009.7
20260505082503 52 69 0.9 4.3 0.00 0.16 0.14 98 1009.7
20260505082003 52 71 1.7 4.3 0.00 0.16 0.14 98 1009.7
20260505081503 52 65 1.7 4.3 0.00 0.16 0.14 98 1009.7
20260505081004 52 56 0.9 4.3 0.00 0.16 0.14 97 1009.7
20260505080503 52 63 0.9 4.3 0.00 0.16 0.14 98 1009.6
20260505080003 52 63 1.7 4.3 0.00 0.16 0.14 97 1009.7
20260505075503 52 60 1.7 4.3 0.00 0.16 0.14 97 1009.7
20260505075003 52 56 0.9 4.3 0.00 0.16 0.14 98 1009.7
20260505074509 52 59 1.7 6.1 0.00 0.16 0.14 97 1009.7
20260505074003 52 60 1.7 7.0 0.00 0.16 0.14 97 1009.7
20260505073718 52 51 1.7 7.0 0.00 0.16 0.14 97 1009.7
20260505073003 52 70 0.9 3.5 0.00 0.16 0.14 98 1009.7
20260505072503 52 78 0.9 2.6 0.00 0.16 0.14 97 1009.7
20260505072003 52 50 0.9 3.5 0.01 0.16 0.14 98 1009.6
20260505071503 52 68 1.7 5.2 0.01 0.16 0.14 97 1009.7
20260505071217 52 56 1.7 5.2 0.02 0.16 0.14 97 1009.6
20260505070503 52 62 2.6 6.1 0.02 0.16 0.14 97 1009.7
20260505070004 52 72 2.6 7.0 0.02 0.16 0.14 97 1009.7
20260505065504 52 75 1.7 7.0 0.02 0.16 0.14 97 1009.5
20260505065003 52 74 1.7 7.0 0.02 0.16 0.14 97 1009.5
20260505064503 52 74 2.6 7.0 0.02 0.16 0.14 97 1009.7
20260505064003 52 68 1.7 7.0 0.02 0.16 0.14 97 1009.8
20260505063503 53 41 1.7 5.2 0.02 0.16 0.14 97 1009.8
20260505063003 53 48 1.7 5.2 0.02 0.16 0.14 97 1009.7
20260505062503 53 61 0.9 2.6 0.02 0.16 0.14 97 1009.7
20260505062003 53 74 0.9 2.6 0.02 0.15 0.13 97 1009.7
20260505061717 53 87 0.0 1.7 0.02 0.15 0.13 97 1009.8
20260505061003 53 88 0.0 1.7 0.02 0.14 0.13 97 1009.8
20260505060503 53 78 0.9 3.5 0.02 0.14 0.13 97 1009.7
20260505060216 53 70 0.9 3.5 0.02 0.14 0.13 97 1009.7
20260505055717 53 70 1.7 3.5 0.03 0.14 0.13 97 1009.8
20260505055003 53 70 1.7 4.3 0.03 0.14 0.13 97 1009.8
20260505054503 53 61 0.9 4.3 0.04 0.14 0.13 97 1009.7
20260505054216 53 55 1.7 4.3 0.03 0.13 0.13 97 1009.7
20260505053503 53 73 0.9 5.2 0.03 0.13 0.12 97 1009.7
20260505053005 53 82 1.7 5.2 0.04 0.13 0.12 97 1009.8
20260505052503 53 85 0.9 5.2 0.04 0.13 0.12 97 1009.7
20260505052003 53 81 0.9 5.2 0.04 0.13 0.12 97 1009.7
20260505051503 53 31 0.9 3.5 0.03 0.13 0.11 97 1009.7
20260505051003 53 14 0.9 3.5 0.03 0.13 0.11 97 1009.8
20260505050717 53 337 0.9 3.5 0.03 0.13 0.11 97 1009.7
20260505050218 54 28 0.9 3.5 0.02 0.12 0.10 97 1009.7
20260505041503 54 76 1.7 3.5 0.00 0.09 0.08 97 1009.8
20260505041003 54 78 1.7 6.1 0.00 0.09 0.08 97 1009.8
20260505040717 54 67 1.7 6.1 0.00 0.09 0.08 97 1009.8
20260505040004 55 325 0.9 3.5 0.00 0.09 0.08 96 1009.7
20260505035503 55 327 0.9 4.3 0.00 0.09 0.08 96 1009.7
20260505035003 55 335 0.9 4.3 0.00 0.09 0.08 96 1009.7
20260505034503 55 339 0.9 3.5 0.00 0.09 0.08 97 1009.7
20260505034005 55 36 0.9 3.5 0.00 0.09 0.08 97 1009.7
20260505033716 55 59 0.9 3.5 0.00 0.09 0.08 97 1009.7
20260505033217 55 78 0.9 3.5 0.00 0.09 0.08 97 1009.8
20260505032504 55 67 0.9 3.5 0.00 0.09 0.08 97 1009.7
20260505032003 55 68 1.7 5.2 0.00 0.09 0.08 96 1009.7
20260505031718 55 67 1.7 5.2 0.00 0.09 0.08 97 1009.9
20260505031217 55 66 0.9 3.5 0.00 0.09 0.08 97 1009.8
20260505030503 55 70 0.9 3.5 0.00 0.09 0.08 97 1009.9
20260505030217 55 73 0.9 3.5 0.00 0.09 0.08 97 1009.9
20260505025503 55 63 0.9 2.6 0.02 0.09 0.08 97 1010.0
20260505025003 55 73 0.9 3.5 0.02 0.09 0.08 97 1010.1
20260505024503 56 71 1.7 3.5 0.02 0.09 0.08 97 1010.0
20260505024003 55 70 0.9 3.5 0.05 0.09 0.08 97 1010.0
20260505023503 56 80 0.9 3.5 0.06 0.09 0.08 97 1010.0
20260505023003 56 77 0.9 4.3 0.06 0.09 0.08 97 1010.0
20260505022503 56 61 0.9 4.3 0.07 0.09 0.08 97 1010.0
20260505022003 56 68 0.9 3.5 0.07 0.09 0.08 97 1010.0
20260505021503 56 80 0.9 3.5 0.07 0.09 0.08 97 1010.1
20260505021003 56 81 0.9 2.6 0.07 0.09 0.08 97 1010.1
20260505020504 56 82 0.9 2.6 0.07 0.09 0.08 97 1010.1
20260505020003 56 103 0.0 2.6 0.06 0.09 0.07 97 1010.0
20260505015503 56 186 0.0 0.9 0.06 0.08 0.06 97 1010.1
20260505015003 56 0 0.0 0.0 0.05 0.07 0.06 97 1010.0
20260505014503 56 186 0.0 0.9 0.05 0.07 0.06 97 1010.1
20260505014003 56 186 0.0 1.7 0.02 0.05 0.03 97 1010.1
20260505013503 56 186 0.0 1.7 0.01 0.03 0.02 97 1010.1
20260505013003 56 186 0.0 0.9 0.01 0.03 0.02 97 1010.1
20260505012503 56 0 0.0 0.0 0.00 0.02 0.01 97 1010.1
20260505012217 56 0 0.0 0.0 0.00 0.02 0.01 97 1010.1
20260505011718 56 0 0.0 0.0 0.00 0.02 0.01 97 1010.2
20260505011003 56 186 0.0 0.9 0.00 0.02 0.01 97 1010.2
20260505010503 56 186 0.0 0.9 0.00 0.02 0.01 97 1010.3
20260505010003 55 186 0.0 0.9 0.00 0.02 0.01 97 1010.4
20260505005503 55 0 0.0 0.0 0.00 0.02 0.01 97 1010.4
20260505005004 55 0 0.0 0.0 0.00 0.02 0.01 97 1010.4
20260505004503 55 0 0.0 0.0 0.00 0.02 0.01 97 1010.5
20260505004003 55 0 0.0 0.0 0.00 0.02 0.01 96 1010.5
20260505003503 55 0 0.0 0.0 0.00 0.02 0.01 96 1010.6
20260505003218 55 0 0.0 0.0 0.00 0.02 0.01 96 1010.6
20260505002717 55 0 0.0 0.0 0.00 0.02 0.01 96 1010.5
20260505002003 55 0 0.0 0.0 0.00 0.02 0.01 96 1010.5
20260505001503 55 0 0.0 0.0 0.00 0.02 0.01 96 1010.5
20260505001004 55 0 0.0 0.0 0.00 0.02 0.01 96 1010.6
20260505000503 55 0 0.0 0.0 0.00 0.02 0.01 96 1010.7
20260505000003 55 0 0.0 0.0 0.00 0.02 0.01 96 1010.8
20260504235503 55 0 0.0 0.0 0.00 0.02 0.01 96 1010.8
20260504235003 55 0 0.0 0.0 0.00 0.02 0.01 96 1010.7
20260504234503 55 0 0.0 0.0 0.00 0.02 0.01 96 1010.8
20260504234218 55 0 0.0 0.0 0.00 0.02 0.01 96 1010.9
20260504233503 55 0 0.0 0.0 0.00 0.02 0.01 96 1010.8
20260504233003 55 0 0.0 0.0 0.00 0.02 0.01 96 1010.8
20260504232503 55 0 0.0 0.0 0.01 0.03 0.01 96 1010.8
20260504232218 56 0 0.0 0.0 0.01 0.03 0.01 96 1010.8
20260504231503 56 0 0.0 0.0 0.01 0.03 0.01 96 1010.9
20260504231003 56 0 0.0 0.0 0.01 0.03 0.01 96 1010.9
20260504230503 56 0 0.0 0.0 0.01 0.03 0.01 96 1011.0
20260504230003 56 0 0.0 0.0 0.01 0.03 0.01 96 1011.1
20260504225503 56 0 0.0 0.0 0.01 0.04 0.01 96 1011.1
20260504225003 56 0 0.0 0.0 0.01 0.04 0.01 96 1011.2
20260504224503 56 0 0.0 0.0 0.01 0.04 0.01 96 1011.3
20260504224003 55 0 0.0 0.0 0.01 0.04 0.01 96 1011.3
20260504223503 55 0 0.0 0.0 0.01 0.04 0.01 96 1011.3
20260504223003 55 0 0.0 0.0 0.01 0.04 0.01 96 1011.3
20260504222503 56 0 0.0 0.0 0.00 0.03 0.00 96 1011.4
20260504222004 56 0 0.0 0.0 0.01 0.03 0.00 96 1011.5
20260504221503 56 0 0.0 0.0 0.01 0.03 0.00 96 1011.6
20260504221217 55 0 0.0 0.0 0.01 0.03 0.00 96 1011.6
20260504220503 55 0 0.0 0.0 0.01 0.03 0.00 95 1011.7
20260504220003 55 0 0.0 0.0 0.01 0.03 0.00 95 1011.7
20260504215503 55 0 0.0 0.0 0.01 0.03 0.03 95 1011.7
20260504215003 55 0 0.0 0.0 0.01 0.03 0.03 95 1011.8
20260504214504 55 0 0.0 0.0 0.02 0.03 0.03 94 1011.8
20260504214004 56 0 0.0 0.0 0.02 0.03 0.03 94 1011.8
20260504213503 56 0 0.0 0.0 0.02 0.03 0.03 94 1011.8
20260504213003 56 0 0.0 0.0 0.02 0.03 0.03 94 1011.9